DW7061 Weather Reports


time (UTC)temp
C
wind
direction
speed
KPH
gust
KPH
rain 1hr
cm
rain 24hr
cm
rain mn
cm
humidity
%
barometer
mb
20260506224038 13 248 3.2 8.0 0.00 0.00 0.00 96 1004.2
20260506223018 13 248 3.2 11.3 0.00 0.00 0.00 96 1004.2
20260506222017 13 248 3.2 8.0 0.00 0.00 0.00 96 1004.3
20260506221018 13 248 3.2 9.7 0.00 0.00 0.00 96 1004.3
20260506220017 13 248 1.6 8.0 0.00 0.00 0.00 96 1004.3
20260506215017 13 248 3.2 6.4 0.00 0.00 0.00 96 1004.3
20260506214017 13 248 3.2 8.0 0.00 0.00 0.00 96 1004.3
20260506213018 13 248 3.2 9.7 0.00 0.00 0.00 96 1004.4
20260506212017 13 248 3.2 9.7 0.00 0.00 0.00 96 1004.4
20260506211038 13 225 3.2 16.1 0.00 0.00 0.00 96 1004.4
20260506210018 13 248 1.6 8.0 0.00 0.00 0.00 96 1004.4
20260506205018 13 225 1.6 8.0 0.00 0.00 0.00 96 1004.6
20260506204017 13 248 3.2 9.7 0.00 0.00 0.00 95 1004.6
20260506203018 13 225 4.8 12.9 0.00 0.00 0.00 95 1004.8
20260506202017 13 248 1.6 8.0 0.00 0.00 0.00 95 1004.9
20260506201017 13 248 1.6 9.7 0.00 0.00 0.00 95 1005.0
20260506200017 13 248 1.6 8.0 0.00 0.00 0.00 95 1005.1
20260506195018 13 248 3.2 6.4 0.00 0.00 0.00 95 1005.3
20260506194017 13 248 1.6 6.4 0.00 0.00 0.00 95 1005.3
20260506193017 13 225 3.2 14.5 0.00 0.00 0.00 95 1005.3
20260506192017 13 248 3.2 16.1 0.00 0.00 0.00 95 1005.5
20260506191037 13 248 3.2 9.7 0.00 0.00 0.00 94 1005.7
20260506190018 13 248 3.2 9.7 0.00 0.00 0.00 94 1005.6
20260506185017 13 135 1.6 12.9 0.00 0.00 0.00 94 1005.5
20260506184018 14 225 1.6 8.0 0.00 0.00 0.00 94 1005.6
20260506183039 14 225 3.2 12.9 0.00 0.00 0.00 93 1005.8
20260506182017 14 270 3.2 12.9 0.00 0.00 0.00 93 1005.9
20260506181017 14 248 1.6 6.4 0.00 0.00 0.00 93 1005.6
20260506180018 15 270 1.6 8.0 0.00 0.00 0.00 93 1005.7
20260506175037 15 180 1.6 6.4 0.00 0.00 0.00 92 1006.2
20260506174037 15 248 3.2 19.3 0.00 0.00 0.00 91 1006.4
20260506173017 15 248 1.6 3.2 0.00 0.00 0.00 91 1006.8
20260506172018 15 0.0 4.8 0.00 0.00 0.00 89 1006.9
20260506171017 16 0.0 4.8 0.00 0.00 0.00 87 1007.0
20260506170017 16 248 1.6 6.4 0.00 0.00 0.00 84 1007.0
20260506165017 16 248 1.6 6.4 0.00 0.00 0.00 82 1006.8
20260506164018 17 248 1.6 8.0 0.00 0.00 0.00 81 1007.0
20260506163017 17 225 1.6 3.2 0.00 0.00 0.00 81 1007.2
20260506162040 17 248 1.6 8.0 0.00 0.00 0.00 82 1007.1
20260506161017 16 248 1.6 6.4 0.00 0.00 0.00 83 1007.2
20260506160018 16 248 1.6 6.4 0.00 0.00 0.00 84 1007.5
20260506155017 16 248 1.6 11.3 0.00 0.00 0.00 84 1007.7
20260506154017 16 248 1.6 4.8 0.00 0.00 0.00 84 1007.7
20260506153017 16 248 1.6 8.0 0.00 0.00 0.00 84 1007.8
20260506152018 16 248 1.6 8.0 0.00 0.00 0.00 85 1008.0
20260506151017 15 225 3.2 17.7 0.00 0.00 0.00 86 1008.0
20260506150017 15 225 3.2 14.5 0.00 0.00 0.00 86 1008.1
20260506145018 15 248 3.2 12.9 0.00 0.00 0.00 85 1008.1
20260506144017 15 248 1.6 6.4 0.00 0.00 0.00 86 1008.1
20260506143017 15 248 3.2 8.0 0.00 0.00 0.00 86 1008.2
20260506142017 15 248 3.2 9.7 0.00 0.00 0.00 86 1008.0
20260506141017 15 225 3.2 9.7 0.00 0.00 0.00 86 1008.4
20260506140157 15 248 4.8 12.9 0.00 0.00 0.00 87 1008.1
20260506135017 15 248 1.6 8.0 0.00 0.00 0.00 87 1007.7
20260506134037 15 270 3.2 8.0 0.00 0.00 0.00 87 1007.9
20260506133018 15 248 3.2 9.7 0.00 0.00 0.00 88 1007.9
20260506132017 15 248 3.2 8.0 0.00 0.00 0.00 87 1008.0
20260506131017 15 248 3.2 9.7 0.00 0.00 0.00 88 1008.1
20260506130017 14 248 1.6 9.7 0.00 0.00 0.00 89 1008.2
20260506125018 14 248 1.6 4.8 0.00 0.00 0.00 89 1008.3
20260506124017 14 248 1.6 6.4 0.00 0.00 0.00 90 1008.4
20260506123037 14 248 1.6 6.4 0.00 0.00 0.00 90 1008.5
20260506122038 13 270 3.2 6.4 0.00 0.00 0.00 90 1008.5
20260506121017 13 248 3.2 6.4 0.00 0.00 0.00 90 1008.6
20260506120017 13 225 1.6 6.4 0.00 0.00 0.00 91 1008.4
20260506115018 13 225 1.6 14.5 0.00 0.00 0.00 91 1008.5
20260506114017 13 248 1.6 6.4 0.00 0.00 0.00 91 1008.6
20260506113017 13 225 3.2 12.9 0.00 0.00 0.00 91 1008.6
20260506112018 13 225 1.6 14.5 0.00 0.00 0.00 91 1008.4
20260506111017 13 225 1.6 12.9 0.00 0.00 0.00 92 1008.6
20260506110017 12 248 1.6 9.7 0.00 0.00 0.00 92 1008.8
20260506105058 13 225 3.2 11.3 0.00 0.00 0.00 92 1008.8
20260506104017 12 248 3.2 8.0 0.00 0.00 0.00 92 1008.9
20260506103037 12 225 1.6 12.9 0.00 0.00 0.00 92 1008.7
20260506102018 12 248 3.2 11.3 0.00 0.00 0.00 92 1008.5
20260506101017 12 248 1.6 8.0 0.00 0.00 0.00 92 1008.6
20260506100018 12 248 1.6 8.0 0.00 0.00 0.00 91 1008.7
20260506095017 12 248 1.6 6.4 0.00 0.00 0.00 91 1008.5
20260506094017 12 248 1.6 4.8 0.00 0.00 0.00 91 1008.6
20260506093037 12 270 1.6 6.4 0.00 0.00 0.00 90 1008.6
20260506092058 12 248 1.6 8.0 0.00 0.00 0.00 90 1008.5
20260506091017 12 113 1.6 16.1 0.00 0.00 0.00 90 1008.7
20260506090017 13 270 3.2 16.1 0.00 0.00 0.00 90 1008.7
20260506085038 13 225 3.2 8.0 0.00 0.00 0.00 89 1008.8
20260506084037 13 248 1.6 8.0 0.00 0.00 0.00 89 1008.9
20260506083017 13 225 3.2 11.3 0.00 0.00 0.00 89 1008.9
20260506082038 13 248 1.6 8.0 0.00 0.00 0.00 89 1008.8
20260506081037 13 248 1.6 8.0 0.00 0.00 0.00 88 1008.9
20260506073018 13 225 1.6 8.0 0.00 0.00 0.00 87 1009.0
20260506072017 13 248 1.6 6.4 0.00 0.00 0.00 86 1009.1
20260506071018 13 270 1.6 6.4 0.00 0.00 0.00 85 1009.1
20260506062018 14 248 1.6 6.4 0.00 0.00 0.00 82 1009.0
20260506061017 14 225 1.6 3.2 0.00 0.00 0.00 81 1009.1
20260506051017 15 248 1.6 4.8 0.00 0.00 0.00 78 1009.1
20260506045018 15 225 3.2 14.5 0.00 0.00 0.00 77 1009.3
20260506044017 15 248 3.2 8.0 0.00 0.00 0.00 77 1009.2
20260506043017 15 248 1.6 8.0 0.00 0.00 0.00 77 1009.4
20260506042017 15 248 3.2 14.5 0.00 0.00 0.00 76 1009.3
20260506041017 15 248 3.2 16.1 0.00 0.00 0.00 76 1009.2
20260506040020 15 248 3.2 16.1 0.00 0.00 0.00 76 1009.1
20260506035036 15 248 3.2 9.7 0.00 0.00 0.00 75 1009.2
20260506034020 15 248 3.2 9.7 0.00 0.00 0.00 75 1009.3
20260506033016 15 270 1.6 12.9 0.00 0.00 0.00 74 1009.3
20260506032015 15 248 1.6 9.7 0.00 0.00 0.00 74 1009.2
20260506031016 15 248 1.6 8.0 0.00 0.00 0.00 73 1009.2
20260506030016 15 248 1.6 6.4 0.00 0.00 0.00 73 1009.3
20260506025036 16 225 1.6 12.9 0.00 0.00 0.00 72 1009.2
20260506024016 16 248 1.6 12.9 0.00 0.00 0.00 71 1009.2
20260506023016 16 248 3.2 9.7 0.00 0.00 0.00 71 1009.1
20260506022016 16 248 3.2 12.9 0.00 0.00 0.00 71 1008.9
20260506021036 16 248 1.6 8.0 0.00 0.00 0.00 71 1008.9
20260506020018 16 0.0 3.2 0.00 0.00 0.00 71 1008.8
20260506015018 16 248 1.6 8.0 0.00 0.00 0.00 70 1008.9
20260506014016 17 0.0 4.8 0.00 0.00 0.00 70 1008.8
20260506013018 17 0.0 3.2 0.00 0.00 0.00 69 1008.6
20260506012016 17 270 1.6 6.4 0.00 0.00 0.00 68 1008.6
20260506011018 17 248 1.6 8.0 0.00 0.00 0.00 68 1008.6
20260506010016 17 248 1.6 4.8 0.00 0.00 0.00 67 1008.5
20260506005038 18 270 1.6 6.4 0.00 0.00 0.00 66 1008.5
20260506004017 18 0.0 4.8 0.00 0.00 0.00 65 1008.4
20260506003017 18 248 1.6 8.0 0.00 0.00 0.00 64 1008.3
20260506002018 18 248 4.8 11.3 0.00 0.00 0.00 63 1007.6
20260506001017 18 270 1.6 8.0 0.00 0.00 0.00 63 1007.5
20260506000017 19 248 3.2 11.3 0.00 0.00 0.00 62 1007.2
20260505235018 19 225 4.8 14.5 0.00 0.00 0.00 61 1006.9
20260505234058 20 248 3.2 11.3 0.00 0.00 0.00 60 1006.9
20260505233038 20 248 3.2 9.7 0.00 0.00 0.00 59 1006.6
20260505232018 20 225 1.6 6.4 0.00 0.00 0.00 58 1006.4
20260505231017 20 248 3.2 20.9 0.00 0.00 0.00 58 1006.3
20260505230018 21 225 3.2 17.7 0.00 0.00 0.00 57 1006.3
20260505225016 21 225 4.8 9.7 0.00 0.00 0.00 56 1006.2